Showing default

VANGUARD 2, 11

Orbit data source: Space-Track

VANGUARD 2, 11 is a payload satellite owned by NASA BSC (US) in LEO that was launched on Tue, 17 Feb 1959 UTC via a VANGUARD launch vehicle from the Air Force Eastern Test Range (AFETR). Payload-class satellites include a variety of spacecraft equipped with specific instruments for various scientific and technological missions. These include communications satellites like Starlink; space stations such as the ISS; scientific satellites like the Hubble; Earth observation satellites from companies like Planet Labs, Umbra, and HawkEye 360; GPS; miniature CubeSats for education and research; and military/defense satellites.

Loading next visibility...
Identifier
11, 1959-001A
Orbit
LEO
Country
Flag of USUS
Related business
Manufacturer
NRL
Mission
Spacecraft
Bus & Motor
NRL 20", Unknown motor
Mass
10 kg wet, 10 kg dry
Launch date (UTC)
1959-02-17 (67 years ago)
Launch vehicle
VANGUARD
Launch site
Air Force Eastern Test Range (AFETR)
Object type
Payload
Rocket body
Debris
Shape & HBR
Unknown
Radar Cross Section
Medium (>0.1 m² and <1 m²)

Expand to show TLE details & history
Last TLE update: 9 hours ago

TLE from 9 hours ago
0 VANGUARD 2
1 00011U 59001A   25352.25212000  .00000231  00000-0  12299-3 0  9998
2 00011  32.8677  49.7671 1447572 107.4239 268.9423 11.90153247513902
Epoch: 2025-12-18T06:03Z
TLE epoch observation values (Epoch: 2025-12-18T06:03:03.168Z)
Latitude
-0.00001°
Longitude
-128.10641°
Altitude
1,912.529 km
Speed
6.856 km/s
True Right ascension
03h 19m 04s
True Declination
0° 00' 00"
Sunlit
Object was in full shadow at epoch
Visualization orbit readout
Latitude
Unknown
Longitude
Unknown
Altitude
Unknown
Speed
Unknown
Apparent Right ascension
Unknown
Apparent Declination
Unknown
Sunlit
N/A
Visualization observer readout
Local Sidereal Time
14:10:24
Azimuth
Unknown
Elevation
Unknown
Doppler factor
Unknown
Orbital elements
Apogee altitude
2,901.866 km
Perigee altitude
554.91 km
Semi-major axis
8,106.525 km
Eccentricity
0.14476
Inclination
32.8677°
RAAN
49.7671°
Arg. of periapsis
107.4239°
True anomaly
252.63513°
Mean anomaly
268.9423°
Eccentric anomaly
260.75603°
Mean motion
2.97366 °/min
Orbital period
121.06 mins
BSTAR
0.00012299
Loading maneuver chart data...
Computing Atmospheric mass density...
Loading historical data...
Loading historical data...
Loading historical data...
Loading historical data...
Loading historical data...
Loading historical data...
Loading historical data...
Other satellites on launch #1 in the year 1959 (1959-02-17 UTC)

Documentation

Showing up to 5 results
|